Regional Weather Roundup
Issued by NWS Goodland, KS

Home | Current Version | Previous Version | Text Only | Print | Product List | Glossary Off
Versions: 1 2 3 4 5 6 7 8 9 10 11 12 13 14 15 16 17 18 19 20 21 22 23 24 25 26 27 28 29 30 31 32 33 34 35 36 37 38 39 40 41 42 43 44 45 46 47 48 49 50

000
ASUS43 KGLD 211859
RWRGLD

GOODLAND FORECAST AREA HOURLY WEATHER ROUNDUP
NATIONAL WEATHER SERVICE GOODLAND KS
100 PM MDT SAT OCT 21 2017

...OFFICIAL OBSERVATIONS...

CITY           SKY/WX    TMP DP  RH WIND       PRES   REMARKS
GOODLAND KS    SUNNY     59  24  26 N28G37    29.93S
HILL CITY KS   CLOUDY    61  39  44 NW23G32   29.89R
IMPERIAL NEB   SUNNY     59  24  26 NW21G30   29.92R
MCCOOK NEB     CLOUDY    56  34  43 NW18G26   29.92R
AKRON CO       SUNNY     54  16  22 NW25G39   29.98F
BURLINGTON CO  MOSUNNY   57  21  24 N20G33    29.97R
LIMON CO       SUNNY     54   7  15 NW31G37   30.00S
$$

...UNOFFICIAL OBSERVATIONS...

CITY           SKY/WX    TMP DP  RH WIND       PRES   REMARKS
LENORA KS        N/A     59  32  36 N10         N/A
NORTON KS      MOSUNNY   59  32  36 NW25G31   29.87
SHARON SPRINGS   N/A     56  27  33 N17G28      N/A
TRENTON NEB      N/A     60  32  34 N9G17       N/A
YUMA CO        FAIR      54  18  24 NW23G36   29.96S
$$




USA.gov is the U.S. government's official web portal to all federal, state and local government web resources and services.